GW3874 Weather Reports


Display with metric or nautical units.
time (UTC)temp
F
wind
direction
speed
MPH
gust
MPH
rain 1hr
in
rain 24hr
in
rain mn
in
humidity
%
barometer
mb
20260504201510 50 279 4.0 8.0 0.00 0.03 0.00 64 1001.5
20260504200016 50 237 3.0 12.0 0.00 0.03 0.00 65 1001.6
20260504194514 47 207 6.0 13.0 0.00 0.04 0.00 67 1001.7
20260504193022 48 197 5.0 11.0 0.00 0.04 0.00 65 1001.8
20260504191511 48 263 6.0 17.0 0.00 0.05 0.00 61 1001.8
20260504190015 49 277 5.0 13.0 0.00 0.07 0.00 57 1001.8
20260504184520 49 196 7.0 18.0 0.00 0.07 0.00 54 1001.7
20260504183018 50 267 8.0 21.0 0.00 0.08 0.00 50 1001.6
20260504181520 51 340 5.0 18.0 0.00 0.09 0.00 44 1001.5
20260504180014 52 319 9.0 23.0 0.00 0.09 0.00 40 1001.4
20260504174516 53 269 5.0 18.0 0.00 0.09 0.00 37 1000.9
20260504173022 54 277 9.0 21.0 0.00 0.10 0.00 35 1000.8
20260504171534 55 242 6.0 17.0 0.00 0.11 0.00 33 1000.7
20260504081529 33 313 7.0 12.0 0.00 0.35 0.00 83 1001.1
20260504050021 36 281 6.0 13.0 0.00 0.35 0.00 85 1000.8
20260504044527 37 308 5.0 13.0 0.00 0.35 0.00 85 1000.9
20260504043028 37 5 6.0 14.0 0.00 0.35 0.00 86 1000.9
20260504041530 37 306 8.0 17.0 0.00 0.35 0.00 86 1000.9
20260504040022 38 325 9.0 17.0 0.00 0.35 0.00 87 1001.0
20260504034523 38 296 7.0 17.0 0.00 0.35 0.35 88 1000.9
20260504033027 39 297 6.0 11.0 0.00 0.35 0.35 91 1000.8
20260504031528 39 316 3.0 8.0 0.00 0.35 0.35 93 1000.9
20260504030027 39 348 3.0 11.0 0.00 0.35 0.35 94 1000.9
20260504024521 39 339 3.0 7.0 0.00 0.35 0.35 94 1000.9
20260504023024 39 321 3.0 5.0 0.00 0.35 0.35 94 1000.9
20260504021508 40 290 2.0 5.0 0.00 0.35 0.35 94 1000.9
20260504020017 40 311 3.0 9.0 0.00 0.35 0.35 93 1001.0
20260504014520 40 347 4.0 10.0 0.00 0.35 0.35 93 1001.2
20260504013023 40 360 3.0 8.0 0.00 0.35 0.35 93 1001.3
20260504011524 40 337 5.0 9.0 0.00 0.35 0.35 93 1001.2
20260504010009 40 339 6.0 11.0 0.00 0.35 0.35 93 1001.0
20260504004521 40 343 3.0 9.0 0.00 0.35 0.35 93 1001.0
20260504003020 40 294 4.0 8.0 0.00 0.35 0.35 93 1000.9
20260504001526 40 332 3.0 13.0 0.00 0.35 0.35 93 1000.7
20260504000025 40 333 4.0 9.0 0.00 0.35 0.35 93 1000.8
20260503234525 40 344 5.0 11.0 0.01 0.35 0.35 93 1000.8
20260503233018 40 342 4.0 10.0 0.01 0.35 0.35 93 1000.9
20260503231522 40 13 4.0 9.0 0.01 0.35 0.35 93 1000.9
20260503230028 41 321 4.0 9.0 0.01 0.35 0.35 92 1000.9
20260503224527 41 346 3.0 11.0 0.01 0.34 0.34 92 1000.9
20260503223011 41 360 4.0 10.0 0.01 0.34 0.34 93 1001.0
20260503221522 41 331 5.0 9.0 0.01 0.34 0.34 93 1001.0
20260503220038 41 336 2.0 5.0 0.01 0.34 0.34 94 1001.2
20260503214524 41 10 2.0 8.0 0.01 0.33 0.33 93 1001.4
20260503213027 41 23 3.0 12.0 0.01 0.33 0.33 93 1001.4
20260503211516 41 351 3.0 12.0 0.01 0.33 0.33 92 1001.4
20260503210003 41 341 3.0 9.0 0.01 0.33 0.33 92 1001.5
20260503204504 41 9 3.0 6.0 0.01 0.32 0.32 92 1001.6
20260503203015 41 340 4.0 10.0 0.01 0.32 0.32 91 1001.7